RH
62 62 69 62 47 32 25 22 21 18 16 15 14 14 16 19 18 21 24 23 18 23 27 27 26 21 17 12 10 7 6 6 10 9 5 3 2 2 2 1 1 1 1 1 1 1 1
79 74 79 72 58 36 35 32 26 20 21 16 14 13 13 16 11 13 13 14 15 21 23 24 24 18 11 10 8 5 5 9 8 5 4 2 2 1 1 1 1 1 1 1 1 1 1
98 88 78 75 73 40 28 33 32 25 22 19 14 12 12 11 10 10 8 9 11 19 18 24 17 15 12 6 5 5 8 8 5 3 2 2 1 1 1 1 1 1 1 1 1 1 1
99 99 91 67 39 33 27 18 22 24 20 14 13 12 11 11 13 9 9 10 12 17 18 19 12 7 6 5 6 7 7 4 3 2 2 1 1 1 1 1 1 1 1 1 2 2 2
99 93 72 43 26 16 11 10 9 13 14 11 12 11 12 12 11 8 9 11 16 17 19 13 8 5 4 8 8 7 4 3 2 2 1 1 1 1 1 1 1 1 1 2 2 2 3
82 70 38 25 13 8 5 5 5 7 10 9 11 11 15 12 10 10 12 16 16 18 16 8 6 5 12 8 8 6 4 2 2 1 1 1 1 1 1 1 1 1 2 2 2 2 4
73 47 21 10 6 4 3 3 3 4 6 7 11 11 11 10 11 12 15 15 18 23 12 11 8 13 10 9 6 4 2 2 1 1 1 1 1 1 1 1 1 1 2 2 2 3 4
65 24 8 4 2 2 2 2 2 2 5 6 11 12 12 14 13 22 17 24 49 26 24 15 17 17 12 8 5 2 2 1 1 1 1 1 1 1 1 1 1 1 2 2 2 3 5
35 10 3 2 2 2 2 1 1 2 4 6 10 13 14 12 19 16 50 77 60 43 34 23 23 17 10 6 3 2 2 1 1 1 1 1 1 1 1 1 2 2 2 3 3 5 6
9 3 2 2 1 1 1 1 1 2 5 7 10 12 14 19 18 53 100 86 68 48 31 30 22 12 6 4 2 2 2 1 1 1 1 1 2 2 2 2 2 3 3 4 4 7 10
3 2 2 2 1 1 1 1 2 2 4 7 11 16 19 25 35 100 100 93 74 47 33 26 17 9 5 3 2 2 2 2 2 1 2 2 2 2 2 2 4 4 5 5 5 9 14
2 2 2 2 1 1 1 1 2 3 5 7 15 18 18 30 75 98 100 98 81 40 30 25 13 7 4 3 3 2 2 2 2 2 2 2 2 3 3 4 5 5 5 5 6 11 15
2 2 2 1 1 1 1 2 2 4 5 9 11 11 29 75 79 100 100 100 50 36 29 18 13 8 5 4 2 2 2 2 2 2 2 3 3 5 5 6 6 6 5 6 8 13 17
2 2 1 1 1 1 2 2 2 5 6 8 9 30 75 88 100 100 100 74 51 31 23 18 12 8 6 4 2 2 2 2 2 2 3 3 5 6 6 7 6 7 7 7 10 8 12
2 2 1 1 1 2 2 3 5 7 8 6 23 63 98 100 100 100 100 86 52 34 23 16 11 8 6 5 3 3 2 3 3 3 3 4 6 7 7 6 7 8 10 11 11 8 10
2 2 1 2 2 2 2 6 8 8 6 16 60 85 100 100 100 99 97 74 61 37 27 16 12 9 6 5 5 5 4 4 4 4 4 5 7 8 8 8 7 8 10 12 11 11 15
2 2 2 2 3 3 4 7 8 8 10 40 85 82 100 100 100 99 89 74 64 42 28 18 14 10 8 6 6 6 6 6 6 5 6 6 7 9 9 10 10 11 12 13 12 13 14
3 2 3 4 5 6 7 8 11 13 35 59 80 100 100 100 99 95 95 77 57 42 27 21 16 13 11 9 9 10 11 10 9 8 8 8 7 8 9 12 14 13 14 16 18 16 16
4 4 4 6 6 7 8 9 12 38 58 78 89 100 100 100 97 100 93 71 56 40 29 25 19 16 14 14 13 13 13 15 16 16 14 12 13 12 11 11 14 17 20 22 21 19 17
5 6 6 8 9 9 10 16 48 67 62 95 100 100 100 94 97 99 88 65 48 36 33 30 26 21 20 21 22 21 19 18 18 17 19 21 20 20 18 15 17 18 18 17 18 22 24
7 7 7 8 8 12 14 37 72 74 89 100 100 100 100 91 93 96 80 56 46 39 37 34 30 27 27 27 28 30 32 31 29 29 22 21 26 30 29 31 31 26 29 32 42 31 25
8 8 9 9 11 14 33 74 80 82 92 98 100 100 100 100 99 95 80 62 49 45 42 39 34 32 33 35 32 38 40 42 43 44 49 45 30 33 33 29 29 30 31 31 30 30 31
11 9 9 9 9 18 29 44 84 80 90 90 94 98 96 89 98 98 88 68 56 51 48 43 40 40 37 36 38 37 41 45 47 50 51 61 61 59 67 56 52 43 35 32 30 35 35
20 13 11 8 9 14 41 59 78 79 99 94 89 100 100 100 100 98 92 81 68 55 52 50 46 45 42 42 39 38 40 42 47 46 47 54 60 64 66 72 72 74 62 50 38 34 35
38 24 18 17 14 22 53 75 80 99 100 84 100 100 100 100 100 100 94 91 75 62 52 50 51 51 47 51 52 47 44 41 44 48 51 51 55 60 65 69 74 82 70 66 57 54 43
58 38 34 34 35 42 65 78 90 91 99 100 100 100 100 100 100 100 100 95 86 75 56 54 55 54 53 55 56 56 53 56 55 53 53 59 60 59 63 69 63 74 72 74 72 60 65
66 57 56 56 61 55 71 78 90 83 100 100 100 99 100 100 100 100 100 100 92 84 78 61 57 58 57 52 57 61 58 57 60 56 54 61 65 64 69 63 64 71 59 66 62 66 70
79 98 81 78 94 83 91 86 90 69 97 100 100 100 100 100 100 100 100 100 96 95 83 81 63 62 64 60 58 60 63 62 59 58 55 56 58 63 66 74 71 67 70 68 69 75 66
48 100 97 94 100 96 100 100 90 71 87 100 100 100 100 100 100 100 100 100 99 99 93 91 82 71 66 67 64 61 65 62 60 58 58 58 60 66 66 66 70 71 61 67 66 68 67
Wind_Speed
80 79 82 78 71 63 60 58 54 59 70 77 85 88 96 96 103 98 100 98 91 91 93 95 96 98 89 88 82 78 74 73 71 75 72 70 69 69 70 71 72 67 70 70 72 77 81
85 88 89 85 81 69 64 61 59 59 64 74 75 78 82 89 84 86 91 97 92 84 90 94 94 93 87 86 80 74 73 71 74 70 69 69 70 69 70 73 74 77 77 78 79 80 81
88 93 96 93 84 74 63 59 58 59 61 66 74 76 75 76 77 71 76 76 73 78 79 83 89 84 86 79 74 75 72 71 66 65 67 71 72 71 72 77 80 76 72 73 74 77 78
93 100 102 93 82 70 65 64 61 61 64 73 73 72 72 66 65 72 69 60 63 67 69 77 79 73 71 68 70 70 69 62 63 65 68 69 69 70 68 64 62 60 59 57 61 64 65
101 105 101 92 81 73 69 70 69 70 71 74 72 67 67 61 64 65 59 54 58 58 64 66 67 61 60 63 63 66 63 60 63 66 65 64 64 55 52 49 47 45 46 47 49 52 58
104 104 97 88 79 79 73 71 68 70 73 72 70 68 61 58 60 55 46 47 46 54 57 57 51 53 54 52 58 58 59 60 59 59 60 57 50 46 41 39 39 41 42 43 42 46 54
106 106 95 84 82 80 74 67 65 61 67 71 66 62 62 61 51 43 43 40 45 50 47 45 48 46 42 51 50 53 56 54 52 51 50 43 39 33 27 28 31 38 41 42 44 48 55
112 104 92 80 71 68 66 60 54 51 58 63 63 57 59 51 42 37 33 35 41 41 39 39 33 35 43 44 47 48 46 45 49 46 42 36 28 22 19 23 28 30 36 40 44 46 57
109 93 79 69 64 57 50 49 42 42 49 57 60 57 54 51 40 33 28 31 31 31 32 23 29 35 37 38 42 40 41 44 41 36 32 23 18 7 7 11 21 26 34 37 41 45 58
94 77 66 60 53 47 37 36 31 37 46 54 56 57 49 46 37 29 26 25 23 23 16 21 30 29 31 34 35 37 37 34 30 27 23 16 10 4 1 12 20 26 32 38 40 52 64
78 67 56 49 41 34 24 22 24 33 44 52 59 53 48 42 34 29 23 17 15 11 13 21 23 23 26 31 34 35 31 26 23 20 15 13 14 11 6 11 19 25 34 38 43 59 68
68 56 47 37 28 20 13 15 23 36 48 56 58 53 47 41 36 25 15 8 8 8 16 20 21 23 26 31 31 29 24 23 18 16 18 18 15 15 7 12 17 24 32 36 43 58 69
55 44 34 23 15 10 9 15 29 44 49 60 54 51 47 43 35 23 12 3 4 11 17 17 25 26 28 28 27 26 27 23 20 20 18 21 19 17 11 13 14 21 27 33 48 56 67
42 34 22 11 6 9 14 25 36 48 51 56 48 57 51 43 33 22 12 5 10 16 18 22 25 30 31 28 28 30 31 28 24 23 20 22 21 19 17 13 12 13 18 30 45 49 60
33 24 10 3 11 21 27 37 44 50 54 43 60 59 50 42 31 22 14 10 12 18 24 26 28 30 29 30 31 33 38 33 31 29 27 23 24 22 17 17 18 16 19 26 37 34 47
25 12 4 12 18 24 32 47 50 50 42 60 65 58 51 40 31 22 16 15 14 21 27 28 33 34 32 33 37 42 44 42 42 39 33 29 25 24 22 20 19 16 14 14 12 17 32
13 6 18 21 28 38 38 48 50 51 54 64 64 57 49 39 29 26 17 18 18 23 27 30 34 38 38 39 44 47 51 50 50 47 43 37 32 26 22 22 21 18 12 7 2 4 12
23 24 32 36 42 41 47 51 56 55 64 63 61 55 46 38 28 27 20 20 19 23 27 30 35 40 42 48 50 55 56 56 55 55 55 49 42 34 30 27 24 20 15 10 3 1 5
35 27 23 35 43 44 44 51 56 67 69 63 57 51 45 35 31 27 22 21 20 22 26 31 35 39 44 49 53 53 55 56 57 58 57 56 55 49 40 36 31 25 19 12 7 4 0
41 27 19 30 38 41 51 61 67 67 62 62 54 47 41 35 31 28 25 22 22 21 26 31 37 39 44 47 50 52 52 53 56 56 56 57 55 56 54 50 42 34 27 22 17 13 8
35 22 21 22 27 50 54 65 69 66 65 58 50 43 35 33 29 27 26 26 23 24 27 32 35 38 41 45 49 51 51 55 56 55 56 57 58 57 58 55 53 48 41 33 27 18 14
41 31 15 18 32 48 61 65 66 66 62 54 47 39 34 31 29 24 24 24 23 23 25 30 34 35 37 42 45 47 49 52 53 54 58 61 58 59 58 57 49 48 41 39 34 30 23
43 37 26 6 19 41 51 59 63 62 58 51 44 37 32 28 25 24 21 21 19 19 21 25 30 33 35 39 41 42 46 49 50 50 51 55 56 57 56 55 53 49 46 44 38 37 32
29 28 30 14 12 27 46 54 58 56 53 45 40 35 29 26 22 19 18 17 16 17 18 21 24 27 31 34 39 41 42 44 45 47 47 49 52 52 50 52 47 45 46 46 44 42 41
21 14 22 10 18 27 46 50 51 52 47 41 37 32 28 25 20 16 14 12 12 12 15 17 20 23 24 28 34 37 39 40 42 44 46 48 48 47 48 46 46 48 49 47 47 43 42
16 13 10 9 24 35 47 50 47 48 44 37 34 31 26 23 19 15 12 9 9 8 9 10 14 16 19 24 30 34 36 39 41 43 45 45 47 46 47 46 46 48 47 47 48 51 52
22 19 15 28 37 39 47 48 45 46 44 37 29 28 24 21 16 12 10 7 6 5 4 6 10 12 15 19 24 28 30 33 35 37 40 42 44 46 47 47 46 51 46 51 51 53 53
20 25 22 40 44 43 46 44 42 40 41 36 29 24 20 18 14 11 8 5 3 4 3 3 6 10 12 15 19 23 26 28 30 32 35 38 41 43 46 48 49 51 52 55 57 55 59
19 25 33 46 46 45 45 42 38 37 39 35 29 23 18 15 12 10 7 5 3 2 4 4 4 6 8 13 16 19 23 25 28 30 33 36 38 42 45 47 49 49 52 53 56 55 59
Wind_Direction
323 321 321 319 310 303 297 287 276 263 257 257 258 258 259 262 263 265 267 268 268 270 272 273 275 278 283 286 290 292 294 301 298 291 287 283 279 276 273 267 263 259 253 249 245 243 241
320 321 320 316 313 302 295 287 278 262 260 253 254 254 257 258 264 263 264 265 269 267 268 270 274 277 282 284 291 292 298 299 293 291 288 284 279 277 273 269 267 259 253 249 246 244 239
320 319 318 315 309 304 292 288 276 262 255 253 249 249 252 255 262 263 263 263 267 267 267 268 272 278 280 286 289 294 299 294 293 289 286 283 281 277 273 268 266 266 257 249 245 239 237
316 319 319 315 306 298 290 279 270 258 249 246 245 246 248 249 253 260 262 264 264 264 267 268 273 278 284 287 293 298 296 298 293 292 289 286 283 277 276 271 264 259 252 246 239 234 228
315 319 316 314 303 291 278 269 262 253 248 246 243 242 243 242 250 259 260 261 259 264 265 270 275 281 284 293 299 298 300 297 297 293 290 288 285 282 276 268 259 251 242 235 230 222 216
321 320 316 311 298 288 279 272 267 252 249 248 241 240 233 240 252 255 253 250 258 261 266 271 279 285 297 302 301 304 300 299 296 293 293 294 291 284 273 260 250 235 227 224 217 210 207
324 320 315 305 296 289 281 273 265 255 246 246 238 233 233 240 246 245 239 247 251 260 269 277 280 301 302 302 306 301 301 302 302 304 303 301 297 285 268 250 238 232 220 209 206 200 199
323 321 314 305 296 289 282 274 262 254 241 236 229 219 222 229 234 226 234 240 251 264 272 279 306 309 308 310 304 305 309 315 316 312 311 309 304 289 263 240 228 215 214 206 200 194 194
323 319 312 304 297 290 279 273 262 245 231 227 220 210 213 223 212 219 222 236 252 266 278 321 317 317 312 309 309 315 326 323 319 318 316 316 311 301 276 227 202 198 202 197 197 189 189
322 317 312 304 294 285 276 266 249 231 217 215 208 204 202 199 203 196 216 235 253 274 336 329 326 325 319 317 323 330 329 325 324 328 330 340 357 35 13 186 180 189 194 192 193 185 186
322 318 311 301 291 284 269 253 228 211 208 203 195 189 184 185 185 183 210 234 265 334 343 341 336 331 330 341 341 336 334 337 341 347 1 23 42 40 101 171 172 186 186 193 191 184 190
323 317 309 298 285 276 253 219 198 187 199 195 180 182 176 175 175 175 194 227 304 0 4 359 355 350 357 354 346 344 350 359 3 15 30 42 52 58 80 145 168 184 191 196 195 189 194
322 319 312 293 273 250 205 183 178 183 191 184 183 177 166 164 156 156 174 203 351 24 20 24 10 6 6 359 0 4 15 18 25 32 41 61 60 63 74 137 165 186 193 196 195 198 195
326 324 311 279 227 159 154 168 175 178 183 182 174 157 154 152 140 151 148 89 35 35 45 35 21 17 11 14 18 27 33 33 40 48 50 64 73 73 93 100 141 168 191 195 200 204 199
330 325 312 172 150 144 153 165 165 172 176 172 157 148 144 136 140 145 115 73 32 39 48 38 34 31 26 32 38 42 45 44 49 53 55 60 74 83 85 103 115 132 172 188 201 212 205
329 325 95 116 139 139 148 161 164 169 168 155 144 141 133 137 139 129 102 72 40 47 44 39 38 38 41 47 48 48 51 51 55 58 60 63 68 79 85 92 102 119 133 169 201 205 210
355 50 105 104 124 138 145 151 159 164 156 146 138 134 135 137 135 111 96 73 52 49 44 43 40 43 44 51 53 58 57 55 57 59 60 63 67 69 73 83 88 94 105 129 148 204 241
63 95 98 114 123 140 153 155 157 152 146 142 135 133 137 132 129 108 97 81 62 50 48 43 44 47 48 53 51 56 56 57 56 60 63 62 65 70 76 77 76 82 87 85 85 132 219
70 63 95 119 124 137 146 150 151 142 141 136 133 135 134 134 117 109 99 87 70 56 52 45 44 47 48 51 55 57 56 57 56 56 56 59 64 65 68 76 80 77 78 72 73 72 211
48 50 90 117 130 139 145 143 137 138 138 131 133 139 135 127 118 111 101 91 80 67 58 53 48 46 49 48 49 54 57 58 57 58 58 55 56 58 60 60 68 72 73 70 62 49 29
41 62 94 121 136 144 146 139 138 137 134 134 138 137 130 120 116 113 107 98 87 73 63 56 51 49 50 49 49 50 51 54 50 55 56 54 57 58 56 55 55 53 56 59 64 54 51
42 39 67 138 152 150 144 139 140 138 133 135 138 135 129 123 119 115 112 107 97 84 68 63 58 54 53 54 54 55 55 53 55 51 52 50 41 46 52 52 57 60 60 54 52 46 42
31 34 29 67 152 155 148 148 143 134 134 138 139 134 128 121 117 119 114 111 102 90 79 70 64 55 54 55 54 55 58 56 55 55 54 58 53 48 48 45 43 43 40 43 45 47 44
359 -0 1 12 161 156 152 150 139 135 138 141 136 134 129 124 119 122 121 119 109 97 86 77 70 63 58 56 56 55 54 53 52 52 52 52 54 52 49 48 47 44 38 34 33 33 29
323 321 323 334 173 161 157 147 139 140 144 140 138 140 136 131 127 121 119 114 114 108 98 83 70 67 61 59 59 57 54 51 49 48 45 44 46 46 46 45 43 41 36 32 28 24 19
316 286 280 229 192 165 155 147 149 145 145 148 149 147 141 136 136 131 127 115 103 114 97 82 73 63 63 57 58 57 56 52 48 45 43 39 42 41 38 40 36 33 33 29 20 22 16
287 273 256 196 182 166 160 157 160 152 150 154 161 151 146 146 142 132 133 124 101 87 111 75 70 60 56 55 52 51 51 49 43 43 40 37 34 34 33 33 28 29 24 22 18 15 10
272 275 240 185 179 170 166 165 164 162 155 161 166 163 158 154 154 150 146 139 110 65 51 53 68 65 45 42 44 44 42 39 35 33 34 34 34 29 28 26 25 21 20 17 15 12 8
273 254 215 186 184 177 170 172 170 171 163 162 170 171 173 176 173 168 172 177 175 26 16 354 0 44 21 21 27 29 26 28 29 26 28 28 24 20 18 18 19 18 15 11 10 10 5